Skip Page Navigation
NASA JPL Caltech
NASA Logo - Jet Propulsion Laboratory + View the NASA Portal
+ Center for Near-Earth Object Studies
JPL Home Earth Solar System Stars & Galaxies Technology
JPL Solar System Dynamics
BODIES ORBITS EPHEMERIDES TOOLS PHYSICAL DATA DISCOVERY FAQ SITE MAP

Significant website upgrade scheduled for September 27. More details available here.

JPL Small-Body Database Browser
Search: [ help ]  
85966 (1999 FD62)
Classification: Main-belt Asteroid          SPK-ID: 2085966
Ephemeris | Orbit Diagram | Orbital Elements | Mission Design | Physical Parameters | Discovery Circumstances ]

[ show orbit diagram ]
Orbital Elements at Epoch 2459396.5 (2021-Jul-01.0) TDB
Reference: JPL 28 (heliocentric ecliptic J2000)
 Element Value Uncertainty (1-sigma)   Units 
e .1175003794853522 2.9789e-08  
a 2.332362006112656 7.8456e-09 au
q 2.058308585297201 6.8848e-08 au
i 10.97777367733133 3.482e-06 deg
node 160.9031271025998 1.7054e-05 deg
peri 284.8218341509345 2.3631e-05 deg
M 175.5721342235794 1.5052e-05 deg
tp 2458761.979800975676
(2019-Oct-05.47980098)
5.4227e-05 TDB
period 1301.045138278434
3.56
6.5647e-06
1.797e-08
d
yr
n .2767006227596056 1.3961e-09 deg/d
Q 2.60641542692811 8.7674e-09 au
  Orbit Determination Parameters
   # obs. used (total)      1370  
   data-arc span      10304 days (28.21 yr)  
   first obs. used      1993-05-23  
   last obs. used      2021-08-08  
   planetary ephem.      DE441  
   SB-pert. ephem.      SB441-N16  
   condition code      0  
   norm. resid. RMS      .50274  
   source      ORB  
   producer      Otto Matic  
   solution date      2021-Aug-25 01:54:27  

Additional Information
 Earth MOID = 1.10584 au 
 Jupiter MOID = 2.58921 au 
 T_jup = 3.536 
[ show covariance matrix ]

Ephemeris | Orbit Diagram | Orbital Elements | Mission Design | Physical Parameters | Discovery Circumstances ]

Physical Parameter Table
Parameter Symbol Value Units Sigma Reference Notes
absolute magnitude H 15.23   n/a MPO637178  
diameter diameter 3.703 km 0.111 urn:nasa:pds:neowise_diameters_albedos::2.0[mainbelt] (http://adsabs.harvard.edu/abs/2011ApJ...741...68M)  
geometric albedo albedo 0.117   0.026 urn:nasa:pds:neowise_diameters_albedos::2.0[mainbelt] (http://adsabs.harvard.edu/abs/2011ApJ...741...68M)  

85966 (1999 FD62)          Discovered 1999-Mar-22 by LONEOS at Anderson Mesa
Reference: 20040830/Numbers.arcLast Updated: 2004-09-06

Alternate Designations
 1999 FD62 = 2003 KD11 
Ephemeris | Orbit Diagram | Orbital Elements | Mission Design | Physical Parameters | Discovery Circumstances ]
ABOUT SSD CREDITS/AWARDS PRIVACY/COPYRIGHT GLOSSARY LINKS
FirstGov 2021-Sep-26 11:09 UT
(server date/time)  
NASA Home Page
Site Manager:   Ryan S. Park
Webmaster  Alan B. Chamberlin